| time (UTC) | temp C | wind direction | speed KPH | gust KPH | rain 1hr cm | rain 24hr cm | rain mn cm | humidity % | barometer mb |
| 20260831101239 | 29 | 191 | 0.0 | 3.2 | 0.00 | 0.00 | 0.00 | 22 | 1013.3 |
| 20260831100735 | 28 | 169 | 1.6 | 4.8 | 0.00 | 0.00 | 0.00 | 21 | 1013.4 |
| 20260831100231 | 28 | 50 | 0.0 | 3.2 | 0.00 | 0.00 | 0.00 | 23 | 1013.4 |
| 20260831095729 | 28 | 205 | 0.0 | 3.2 | 0.00 | 0.00 | 0.00 | 24 | 1013.6 |
| 20260831095225 | 28 | 88 | 0.0 | 1.6 | 0.00 | 0.00 | 0.00 | 23 | 1013.3 |
| 20260831094725 | 28 | 168 | 3.2 | 4.8 | 0.00 | 0.00 | 0.00 | 24 | 1013.5 |
| 20260831094221 | 28 | 210 | 1.6 | 3.2 | 0.00 | 0.00 | 0.00 | 24 | 1013.5 |
| 20260831093717 | 30 | 342 | 1.6 | 6.4 | 0.00 | 0.00 | 0.00 | 21 | 1013.5 |
| 20260831093212 | 30 | 177 | 1.6 | 3.2 | 0.00 | 0.00 | 0.00 | 22 | 1013.5 |
| 20260831092708 | 30 | 106 | 0.0 | 3.2 | 0.00 | 0.00 | 0.00 | 20 | 1013.3 |
| 20260831092203 | 31 | 99 | 1.6 | 3.2 | 0.00 | 0.00 | 0.00 | 21 | 1013.2 |
| 20260831091703 | 30 | 185 | 0.0 | 1.6 | 0.00 | 0.00 | 0.00 | 23 | 1013.3 |
| 20260831091159 | 28 | 355 | 3.2 | 3.2 | 0.00 | 0.00 | 0.00 | 24 | 1013.4 |
| 20260831090659 | 29 | 289 | 1.6 | 3.2 | 0.00 | 0.00 | 0.00 | 23 | 1013.3 |
| 20260831090155 | 30 | 76 | 3.2 | 3.2 | 0.00 | 0.00 | 0.00 | 22 | 1013.3 |
| 20260831085651 | 30 | 64 | 3.2 | 3.2 | 0.00 | 0.00 | 0.00 | 22 | 1013.5 |
| 20260831085147 | 30 | 147 | 0.0 | 3.2 | 0.00 | 0.00 | 0.00 | 21 | 1013.6 |
| 20260831084642 | 30 | 266 | 0.0 | 3.2 | 0.00 | 0.00 | 0.00 | 23 | 1013.6 |
| 20260831084138 | 30 | 154 | 3.2 | 3.2 | 0.00 | 0.00 | 0.00 | 22 | 1013.5 |
| 20260831083634 | 29 | 63 | 0.0 | 3.2 | 0.00 | 0.00 | 0.00 | 24 | 1013.4 |
| 20260831083129 | 29 | 80 | 3.2 | 4.8 | 0.00 | 0.00 | 0.00 | 24 | 1013.4 |
| 20260831082627 | 29 | 299 | 0.0 | 4.8 | 0.00 | 0.00 | 0.00 | 24 | 1013.6 |
| 20260831082123 | 28 | 79 | 1.6 | 3.2 | 0.00 | 0.00 | 0.00 | 24 | 1013.5 |
| 20260831081618 | 29 | 63 | 0.0 | 3.2 | 0.00 | 0.00 | 0.00 | 24 | 1013.8 |
| 20260831081114 | 28 | 68 | 0.0 | 1.6 | 0.00 | 0.00 | 0.00 | 25 | 1013.5 |
| 20260831080609 | 28 | 269 | 0.0 | 1.6 | 0.00 | 0.00 | 0.00 | 26 | 1013.7 |
| 20260831080104 | 29 | 48 | 1.6 | 3.2 | 0.00 | 0.00 | 0.00 | 26 | 1013.6 |
| 20260831075600 | 30 | 63 | 3.2 | 3.2 | 0.00 | 0.00 | 0.00 | 25 | 1013.7 |
| 20260831075055 | 30 | 55 | 3.2 | 4.8 | 0.00 | 0.00 | 0.00 | 24 | 1013.8 |
| 20260831074554 | 30 | 100 | 0.0 | 1.6 | 0.00 | 0.00 | 0.00 | 24 | 1013.6 |
| 20260831074049 | 30 | 222 | 0.0 | 3.2 | 0.00 | 0.00 | 0.00 | 24 | 1013.7 |
| 20260831073544 | 30 | 255 | 1.6 | 4.8 | 0.00 | 0.00 | 0.00 | 23 | 1013.5 |
| 20260831073043 | 30 | 170 | 3.2 | 4.8 | 0.00 | 0.00 | 0.00 | 23 | 1013.6 |
| 20260831072539 | 30 | 237 | 1.6 | 1.6 | 0.00 | 0.00 | 0.00 | 23 | 1013.6 |
| 20260831072035 | 30 | 89 | 0.0 | 1.6 | 0.00 | 0.00 | 0.00 | 24 | 1013.7 |
| 20260831071534 | 30 | 223 | 0.0 | 1.6 | 0.00 | 0.00 | 0.00 | 23 | 1013.4 |
| 20260831071029 | 31 | 239 | 3.2 | 6.4 | 0.00 | 0.00 | 0.00 | 23 | 1013.5 |
| 20260831070528 | 31 | 251 | 1.6 | 4.8 | 0.00 | 0.00 | 0.00 | 23 | 1013.4 |
| 20260831070023 | 31 | 247 | 0.0 | 3.2 | 0.00 | 0.00 | 0.00 | 23 | 1013.6 |
| 20260831065521 | 31 | 59 | 1.6 | 3.2 | 0.00 | 0.00 | 0.00 | 23 | 1013.3 |
| 20260831065016 | 31 | 191 | 0.0 | 3.2 | 0.00 | 0.00 | 0.00 | 23 | 1013.4 |
| 20260831064511 | 32 | 284 | 0.0 | 3.2 | 0.00 | 0.00 | 0.00 | 23 | 1013.4 |
| 20260831064006 | 32 | 92 | 3.2 | 3.2 | 0.00 | 0.00 | 0.00 | 22 | 1013.3 |
| 20260831063501 | 33 | 332 | 3.2 | 4.8 | 0.00 | 0.00 | 0.00 | 21 | 1013.4 |
| 20260831062955 | 33 | 285 | 4.8 | 16.1 | 0.00 | 0.00 | 0.00 | 20 | 1013.4 |
| 20260831062451 | 33 | 260 | 11.3 | 14.5 | 0.00 | 0.00 | 0.00 | 20 | 1013.3 |
| 20260831061950 | 33 | 253 | 8.0 | 16.1 | 0.00 | 0.00 | 0.00 | 20 | 1013.2 |
| 20260831061448 | 33 | 268 | 8.0 | 16.1 | 0.00 | 0.00 | 0.00 | 20 | 1013.2 |
| 20260831060945 | 33 | 238 | 11.3 | 20.9 | 0.00 | 0.00 | 0.00 | 20 | 1013.2 |
| 20260831060439 | 33 | 272 | 8.0 | 20.9 | 0.00 | 0.00 | 0.00 | 20 | 1013.1 |
| 20260831055938 | 33 | 287 | 9.7 | 24.1 | 0.00 | 0.00 | 0.00 | 20 | 1013.1 |
| 20260831055433 | 33 | 285 | 9.7 | 17.7 | 0.00 | 0.00 | 0.00 | 20 | 1013.1 |
| 20260831054929 | 33 | 287 | 17.7 | 30.6 | 0.00 | 0.00 | 0.00 | 20 | 1013.1 |
| 20260831054424 | 33 | 268 | 19.3 | 24.1 | 0.00 | 0.00 | 0.00 | 20 | 1013.4 |
| 20260831053923 | 33 | 293 | 11.3 | 17.7 | 0.00 | 0.00 | 0.00 | 20 | 1013.2 |
| 20260831053421 | 33 | 288 | 12.9 | 24.1 | 0.00 | 0.00 | 0.00 | 20 | 1013.3 |
| 20260831052916 | 33 | 300 | 14.5 | 27.4 | 0.00 | 0.00 | 0.00 | 20 | 1013.1 |
| 20260831052415 | 33 | 324 | 25.7 | 27.4 | 0.00 | 0.00 | 0.00 | 20 | 1013.2 |
| 20260831051914 | 33 | 312 | 19.3 | 24.1 | 0.00 | 0.00 | 0.00 | 20 | 1013.3 |
| 20260831051412 | 33 | 287 | 11.3 | 20.9 | 0.00 | 0.00 | 0.00 | 21 | 1013.2 |
| 20260831050908 | 33 | 253 | 9.7 | 19.3 | 0.00 | 0.00 | 0.00 | 21 | 1013.2 |
| 20260831050402 | 33 | 240 | 9.7 | 24.1 | 0.00 | 0.00 | 0.00 | 20 | 1013.2 |
| 20260831045901 | 33 | 301 | 6.4 | 25.7 | 0.00 | 0.00 | 0.00 | 21 | 1013.1 |
| 20260831045355 | 33 | 303 | 16.1 | 22.5 | 0.00 | 0.00 | 0.00 | 21 | 1013.0 |
| 20260831044850 | 33 | 277 | 22.5 | 27.4 | 0.00 | 0.00 | 0.00 | 21 | 1013.1 |
| 20260831044350 | 33 | 287 | 22.5 | 32.2 | 0.00 | 0.00 | 0.00 | 21 | 1012.9 |
| 20260831043847 | 33 | 303 | 9.7 | 30.6 | 0.00 | 0.00 | 0.00 | 21 | 1013.3 |
| 20260831043346 | 33 | 260 | 14.5 | 32.2 | 0.00 | 0.00 | 0.00 | 21 | 1012.9 |
| 20260831042841 | 33 | 288 | 9.7 | 24.1 | 0.00 | 0.00 | 0.00 | 22 | 1013.3 |
| 20260831042340 | 33 | 324 | 8.0 | 19.3 | 0.00 | 0.00 | 0.00 | 22 | 1013.0 |
| 20260831041836 | 34 | 295 | 22.5 | 30.6 | 0.00 | 0.00 | 0.00 | 22 | 1013.0 |
| 20260831041335 | 33 | 345 | 19.3 | 29.0 | 0.00 | 0.00 | 0.00 | 23 | 1013.0 |
| 20260831040830 | 34 | 23 | 4.8 | 30.6 | 0.00 | 0.00 | 0.00 | 22 | 1013.0 |
| 20260831040329 | 33 | 324 | 17.7 | 25.7 | 0.00 | 0.00 | 0.00 | 23 | 1012.8 |
| 20260831035828 | 33 | 306 | 25.7 | 29.0 | 0.00 | 0.00 | 0.00 | 24 | 1012.6 |
| 20260831035327 | 34 | 299 | 20.9 | 25.7 | 0.00 | 0.00 | 0.00 | 23 | 1012.7 |
| 20260831034822 | 34 | 281 | 9.7 | 14.5 | 0.00 | 0.00 | 0.00 | 23 | 1012.5 |
| 20260831034317 | 34 | 289 | 8.0 | 24.1 | 0.00 | 0.00 | 0.00 | 22 | 1012.6 |
| 20260831033812 | 34 | 313 | 16.1 | 24.1 | 0.00 | 0.00 | 0.00 | 23 | 1012.4 |
| 20260831033307 | 35 | 287 | 8.0 | 24.1 | 0.00 | 0.00 | 0.00 | 22 | 1012.4 |
| 20260831032803 | 35 | 280 | 11.3 | 17.7 | 0.00 | 0.00 | 0.00 | 22 | 1012.3 |
| 20260831032257 | 34 | 301 | 11.3 | 29.0 | 0.00 | 0.00 | 0.00 | 22 | 1012.1 |
| 20260831031752 | 34 | 280 | 6.4 | 16.1 | 0.00 | 0.00 | 0.00 | 23 | 1012.0 |
| 20260831031251 | 34 | 308 | 11.3 | 20.9 | 0.00 | 0.00 | 0.00 | 23 | 1011.7 |
| 20260831030746 | 34 | 326 | 14.5 | 19.3 | 0.00 | 0.00 | 0.00 | 24 | 1012.0 |
| 20260831030244 | 34 | 315 | 9.7 | 17.7 | 0.00 | 0.00 | 0.00 | 24 | 1011.7 |
| 20260831025744 | 34 | 252 | 17.7 | 35.4 | 0.00 | 0.00 | 0.00 | 23 | 1011.7 |
| 20260831025238 | 34 | 296 | 9.7 | 22.5 | 0.00 | 0.00 | 0.00 | 24 | 1011.8 |
| 20260831024735 | 35 | 274 | 16.1 | 27.4 | 0.00 | 0.00 | 0.00 | 23 | 1011.7 |
| 20260831024233 | 35 | 306 | 9.7 | 14.5 | 0.00 | 0.00 | 0.00 | 25 | 1012.0 |
| 20260831023732 | 35 | 301 | 20.9 | 27.4 | 0.00 | 0.00 | 0.00 | 26 | 1012.0 |
| 20260831023231 | 35 | 293 | 17.7 | 35.4 | 0.00 | 0.00 | 0.00 | 25 | 1011.5 |
| 20260831022726 | 35 | 289 | 17.7 | 32.2 | 0.00 | 0.00 | 0.00 | 25 | 1011.5 |
| 20260831022221 | 35 | 292 | 14.5 | 32.2 | 0.00 | 0.00 | 0.00 | 26 | 1011.7 |
| 20260831021720 | 35 | 295 | 16.1 | 30.6 | 0.00 | 0.00 | 0.00 | 27 | 1011.7 |
| 20260831021215 | 35 | 273 | 14.5 | 35.4 | 0.00 | 0.00 | 0.00 | 27 | 1011.5 |
| 20260831020712 | 35 | 261 | 17.7 | 27.4 | 0.00 | 0.00 | 0.00 | 26 | 1011.3 |
| 20260831020211 | 35 | 273 | 14.5 | 35.4 | 0.00 | 0.00 | 0.00 | 26 | 1011.2 |
| 20260831015706 | 35 | 243 | 30.6 | 38.6 | 0.00 | 0.00 | 0.00 | 25 | 1011.0 |
| 20260831015201 | 35 | 265 | 20.9 | 37.0 | 0.00 | 0.00 | 0.00 | 25 | 1011.1 |
| 20260831014656 | 35 | 271 | 17.7 | 37.0 | 0.00 | 0.00 | 0.00 | 24 | 1010.9 |
| 20260831014151 | 36 | 310 | 22.5 | 30.6 | 0.00 | 0.00 | 0.00 | 23 | 1011.0 |
| 20260831013647 | 36 | 281 | 12.9 | 30.6 | 0.00 | 0.00 | 0.00 | 23 | 1010.5 |
| 20260831013147 | 36 | 292 | 12.9 | 32.2 | 0.00 | 0.00 | 0.00 | 23 | 1010.9 |
| 20260831012642 | 36 | 264 | 16.1 | 20.9 | 0.00 | 0.00 | 0.00 | 23 | 1010.7 |
| 20260831012137 | 36 | 274 | 17.7 | 30.6 | 0.00 | 0.00 | 0.00 | 23 | 1010.8 |
| 20260831011636 | 36 | 293 | 9.7 | 27.4 | 0.00 | 0.00 | 0.00 | 23 | 1010.8 |
| 20260831011132 | 37 | 326 | 12.9 | 16.1 | 0.00 | 0.00 | 0.00 | 23 | 1011.0 |
| 20260831010627 | 38 | 261 | 14.5 | 22.5 | 0.00 | 0.00 | 0.00 | 23 | 1010.6 |
| 20260831010122 | 38 | 287 | 9.7 | 29.0 | 0.00 | 0.00 | 0.00 | 23 | 1010.8 |
| 20260831005617 | 38 | 250 | 12.9 | 19.3 | 0.00 | 0.00 | 0.00 | 22 | 1010.7 |
| 20260831005112 | 38 | 258 | 11.3 | 17.7 | 0.00 | 0.00 | 0.00 | 22 | 1010.8 |
| 20260831004608 | 39 | 248 | 9.7 | 24.1 | 0.00 | 0.00 | 0.00 | 22 | 1010.6 |
| 20260831004103 | 39 | 238 | 11.3 | 14.5 | 0.00 | 0.00 | 0.00 | 22 | 1010.7 |
| 20260831003600 | 38 | 262 | 12.9 | 30.6 | 0.00 | 0.00 | 0.00 | 22 | 1010.7 |
| 20260831003055 | 39 | 243 | 24.1 | 37.0 | 0.00 | 0.00 | 0.00 | 22 | 1010.7 |
| 20260831002554 | 39 | 327 | 9.7 | 24.1 | 0.00 | 0.00 | 0.00 | 22 | 1010.7 |
| 20260831002049 | 39 | 290 | 12.9 | 29.0 | 0.00 | 0.00 | 0.00 | 21 | 1010.8 |
| 20260831001544 | 40 | 242 | 27.4 | 37.0 | 0.00 | 0.00 | 0.00 | 21 | 1010.8 |
| 20260831001041 | 40 | 275 | 14.5 | 33.8 | 0.00 | 0.00 | 0.00 | 21 | 1010.7 |
| 20260831000537 | 40 | 248 | 14.5 | 22.5 | 0.00 | 0.00 | 0.00 | 21 | 1010.6 |
| 20260831000036 | 40 | 260 | 11.3 | 22.5 | 0.00 | 0.00 | 0.00 | 21 | 1010.8 |
| 20260830235535 | 40 | 255 | 30.6 | 33.8 | 0.00 | 0.00 | 0.00 | 21 | 1010.8 |
| 20260830235030 | 40 | 249 | 22.5 | 35.4 | 0.00 | 0.00 | 0.00 | 21 | 1010.7 |
| 20260830234525 | 41 | 272 | 14.5 | 20.9 | 0.00 | 0.00 | 0.00 | 20 | 1010.8 |
| 20260830234020 | 40 | 238 | 14.5 | 30.6 | 0.00 | 0.00 | 0.00 | 21 | 1010.7 |
| 20260830233515 | 40 | 260 | 12.9 | 27.4 | 0.00 | 0.00 | 0.00 | 21 | 1010.9 |
| 20260830233012 | 40 | 253 | 25.7 | 37.0 | 0.00 | 0.00 | 0.00 | 21 | 1010.8 |
| 20260830232508 | 40 | 264 | 11.3 | 29.0 | 0.00 | 0.00 | 0.00 | 21 | 1010.9 |
| 20260830232004 | 40 | 247 | 19.3 | 30.6 | 0.00 | 0.00 | 0.00 | 20 | 1010.8 |
| 20260830231459 | 40 | 246 | 24.1 | 27.4 | 0.00 | 0.00 | 0.00 | 20 | 1011.0 |
| 20260830230958 | 41 | 250 | 8.0 | 27.4 | 0.00 | 0.00 | 0.00 | 20 | 1010.9 |
| 20260830230454 | 41 | 261 | 14.5 | 24.1 | 0.00 | 0.00 | 0.00 | 21 | 1011.0 |
| 20260830225952 | 41 | 254 | 16.1 | 25.7 | 0.00 | 0.00 | 0.00 | 20 | 1011.0 |
| 20260830225449 | 41 | 287 | 9.7 | 25.7 | 0.00 | 0.00 | 0.00 | 20 | 1011.1 |
| 20260830224948 | 41 | 238 | 22.5 | 25.7 | 0.00 | 0.00 | 0.00 | 20 | 1011.0 |
| 20260830224447 | 41 | 245 | 12.9 | 35.4 | 0.00 | 0.00 | 0.00 | 20 | 1011.1 |
| 20260830223944 | 41 | 232 | 16.1 | 24.1 | 0.00 | 0.00 | 0.00 | 19 | 1011.2 |
| 20260830223440 | 41 | 233 | 27.4 | 32.2 | 0.00 | 0.00 | 0.00 | 20 | 1011.2 |
| 20260830222939 | 41 | 227 | 17.7 | 33.8 | 0.00 | 0.00 | 0.00 | 20 | 1011.1 |
| 20260830222435 | 42 | 228 | 9.7 | 22.5 | 0.00 | 0.00 | 0.00 | 20 | 1011.2 |
| 20260830221930 | 42 | 245 | 14.5 | 30.6 | 0.00 | 0.00 | 0.00 | 20 | 1011.4 |
| 20260830221426 | 42 | 249 | 20.9 | 24.1 | 0.00 | 0.00 | 0.00 | 19 | 1011.5 |
| 20260830220921 | 41 | 250 | 22.5 | 37.0 | 0.00 | 0.00 | 0.00 | 20 | 1011.2 |
| 20260830220416 | 41 | 254 | 19.3 | 27.4 | 0.00 | 0.00 | 0.00 | 20 | 1011.5 |
| 20260830215913 | 41 | 237 | 22.5 | 27.4 | 0.00 | 0.00 | 0.00 | 21 | 1011.7 |
| 20260830215408 | 41 | 267 | 12.9 | 29.0 | 0.00 | 0.00 | 0.00 | 20 | 1011.7 |
| 20260830214903 | 42 | 246 | 30.6 | 33.8 | 0.00 | 0.00 | 0.00 | 20 | 1011.7 |
| 20260830214358 | 42 | 213 | 9.7 | 24.1 | 0.00 | 0.00 | 0.00 | 19 | 1011.6 |
| 20260830213852 | 42 | 232 | 6.4 | 20.9 | 0.00 | 0.00 | 0.00 | 19 | 1011.8 |
| 20260830213343 | 42 | 227 | 14.5 | 19.3 | 0.00 | 0.00 | 0.00 | 18 | 1012.0 |
| 20260830212838 | 42 | 241 | 9.7 | 20.9 | 0.00 | 0.00 | 0.00 | 18 | 1011.7 |
| 20260830212334 | 42 | 226 | 11.3 | 25.7 | 0.00 | 0.00 | 0.00 | 18 | 1012.1 |
| 20260830211832 | 42 | 261 | 9.7 | 22.5 | 0.00 | 0.00 | 0.00 | 19 | 1012.2 |
| 20260830211327 | 41 | 253 | 11.3 | 22.5 | 0.00 | 0.00 | 0.00 | 19 | 1012.3 |
| 20260830210823 | 42 | 290 | 6.4 | 9.7 | 0.00 | 0.00 | 0.00 | 19 | 1012.2 |
| 20260830210322 | 42 | 107 | 3.2 | 8.0 | 0.00 | 0.00 | 0.00 | 19 | 1012.3 |
| 20260830205820 | 41 | 94 | 6.4 | 11.3 | 0.00 | 0.00 | 0.00 | 19 | 1012.4 |
| 20260830205314 | 41 | 103 | 9.7 | 16.1 | 0.00 | 0.00 | 0.00 | 19 | 1012.6 |
| 20260830204809 | 41 | 190 | 1.6 | 14.5 | 0.00 | 0.00 | 0.00 | 19 | 1012.4 |
| 20260830204308 | 42 | 78 | 6.4 | 11.3 | 0.00 | 0.00 | 0.00 | 19 | 1012.6 |
| 20260830203804 | 42 | 98 | 8.0 | 12.9 | 0.00 | 0.00 | 0.00 | 19 | 1012.7 |
| 20260830203300 | 42 | 39 | 3.2 | 6.4 | 0.00 | 0.00 | 0.00 | 18 | 1012.8 |
| 20260830202759 | 42 | 30 | 4.8 | 6.4 | 0.00 | 0.00 | 0.00 | 19 | 1012.6 |
| 20260830202254 | 42 | 81 | 1.6 | 8.0 | 0.00 | 0.00 | 0.00 | 19 | 1012.9 |
| 20260830201749 | 41 | 86 | 3.2 | 9.7 | 0.00 | 0.00 | 0.00 | 19 | 1012.8 |
| 20260830201243 | 41 | 5 | 3.2 | 11.3 | 0.00 | 0.00 | 0.00 | 19 | 1013.1 |
| 20260830200738 | 41 | 112 | 3.2 | 11.3 | 0.00 | 0.00 | 0.00 | 19 | 1012.9 |
| 20260830200238 | 41 | 70 | 6.4 | 12.9 | 0.00 | 0.00 | 0.00 | 19 | 1013.1 |
| 20260830195733 | 41 | 99 | 14.5 | 14.5 | 0.00 | 0.00 | 0.00 | 19 | 1013.1 |
| 20260830195231 | 41 | 93 | 12.9 | 19.3 | 0.00 | 0.00 | 0.00 | 18 | 1013.2 |
| 20260830194730 | 42 | 122 | 6.4 | 12.9 | 0.00 | 0.00 | 0.00 | 18 | 1013.0 |
| 20260830194225 | 41 | 63 | 4.8 | 6.4 | 0.00 | 0.00 | 0.00 | 19 | 1013.2 |
| 20260830193720 | 41 | 76 | 6.4 | 9.7 | 0.00 | 0.00 | 0.00 | 19 | 1013.2 |
| 20260830193214 | 40 | 298 | 1.6 | 9.7 | 0.00 | 0.00 | 0.00 | 19 | 1013.2 |
| 20260830192710 | 41 | 93 | 8.0 | 8.0 | 0.00 | 0.00 | 0.00 | 19 | 1013.5 |
| 20260830192205 | 41 | 100 | 8.0 | 14.5 | 0.00 | 0.00 | 0.00 | 18 | 1013.6 |
| 20260830191701 | 40 | 123 | 4.8 | 9.7 | 0.00 | 0.00 | 0.00 | 19 | 1013.4 |
| 20260830191155 | 40 | 131 | 6.4 | 16.1 | 0.00 | 0.00 | 0.00 | 19 | 1013.6 |
| 20260830190651 | 40 | 245 | 3.2 | 8.0 | 0.00 | 0.00 | 0.00 | 19 | 1013.7 |
| 20260830190146 | 41 | 128 | 6.4 | 11.3 | 0.00 | 0.00 | 0.00 | 19 | 1013.8 |
| 20260830185644 | 41 | 111 | 9.7 | 9.7 | 0.00 | 0.00 | 0.00 | 18 | 1013.9 |
| 20260830185140 | 41 | 359 | 3.2 | 4.8 | 0.00 | 0.00 | 0.00 | 19 | 1014.1 |
| 20260830184639 | 41 | 21 | 3.2 | 9.7 | 0.00 | 0.00 | 0.00 | 19 | 1014.1 |
| 20260830184133 | 41 | 98 | 3.2 | 8.0 | 0.00 | 0.00 | 0.00 | 19 | 1014.2 |
| 20260830183633 | 41 | 132 | 0.0 | 3.2 | 0.00 | 0.00 | 0.00 | 20 | 1014.2 |
| 20260830183130 | 41 | 355 | 3.2 | 6.4 | 0.00 | 0.00 | 0.00 | 19 | 1014.3 |
| 20260830182630 | 40 | 37 | 0.0 | 4.8 | 0.00 | 0.00 | 0.00 | 19 | 1014.3 |
| 20260830182126 | 40 | 301 | 4.8 | 9.7 | 0.00 | 0.00 | 0.00 | 20 | 1014.5 |
| 20260830181622 | 40 | 273 | 3.2 | 6.4 | 0.00 | 0.00 | 0.00 | 19 | 1014.3 |
| 20260830181121 | 40 | 211 | 3.2 | 8.0 | 0.00 | 0.00 | 0.00 | 20 | 1014.6 |
| 20260830180621 | 38 | 153 | 1.6 | 6.4 | 0.00 | 0.00 | 0.00 | 20 | 1014.4 |
| 20260830180120 | 38 | 60 | 4.8 | 4.8 | 0.00 | 0.00 | 0.00 | 21 | 1014.4 |
| 20260830175619 | 40 | 100 | 6.4 | 8.0 | 0.00 | 0.00 | 0.00 | 20 | 1014.6 |
| 20260830175115 | 39 | 117 | 4.8 | 8.0 | 0.00 | 0.00 | 0.00 | 20 | 1014.7 |
| 20260830174610 | 38 | 87 | 4.8 | 9.7 | 0.00 | 0.00 | 0.00 | 21 | 1014.9 |
| 20260830174106 | 39 | 31 | 4.8 | 9.7 | 0.00 | 0.00 | 0.00 | 20 | 1014.8 |
| 20260830173600 | 39 | 63 | 3.2 | 4.8 | 0.00 | 0.00 | 0.00 | 21 | 1014.6 |
| 20260830173055 | 38 | 42 | 3.2 | 8.0 | 0.00 | 0.00 | 0.00 | 22 | 1014.7 |
| 20260830172552 | 38 | 79 | 3.2 | 9.7 | 0.00 | 0.00 | 0.00 | 21 | 1014.7 |
| 20260830172048 | 38 | 93 | 8.0 | 8.0 | 0.00 | 0.00 | 0.00 | 22 | 1014.7 |
| 20260830171543 | 38 | 60 | 4.8 | 9.7 | 0.00 | 0.00 | 0.00 | 22 | 1014.8 |
| 20260830171038 | 38 | 267 | 0.0 | 3.2 | 0.00 | 0.00 | 0.00 | 22 | 1014.7 |
| 20260830170532 | 38 | 122 | 4.8 | 6.4 | 0.00 | 0.00 | 0.00 | 22 | 1014.9 |
| 20260830170031 | 37 | 174 | 0.0 | 3.2 | 0.00 | 0.00 | 0.00 | 22 | 1015.0 |
| 20260830165526 | 37 | 167 | 0.0 | 6.4 | 0.00 | 0.00 | 0.00 | 23 | 1014.9 |
| 20260830165022 | 36 | 69 | 4.8 | 11.3 | 0.00 | 0.00 | 0.00 | 24 | 1014.8 |
| 20260830164518 | 37 | 15 | 0.0 | 6.4 | 0.00 | 0.00 | 0.00 | 23 | 1014.9 |
| 20260830164014 | 37 | 77 | 3.2 | 4.8 | 0.00 | 0.00 | 0.00 | 23 | 1014.6 |
| 20260830163511 | 37 | 97 | 6.4 | 9.7 | 0.00 | 0.00 | 0.00 | 23 | 1014.9 |
| 20260830163010 | 36 | 89 | 1.6 | 8.0 | 0.00 | 0.00 | 0.00 | 24 | 1014.7 |
| 20260830162507 | 36 | 91 | 4.8 | 8.0 | 0.00 | 0.00 | 0.00 | 24 | 1014.6 |
| 20260830162006 | 36 | 84 | 3.2 | 6.4 | 0.00 | 0.00 | 0.00 | 24 | 1014.7 |
| 20260830161500 | 36 | 66 | 3.2 | 9.7 | 0.00 | 0.00 | 0.00 | 25 | 1014.7 |
| 20260830160955 | 36 | 116 | 3.2 | 6.4 | 0.00 | 0.00 | 0.00 | 25 | 1014.6 |
| 20260830160452 | 36 | 111 | 4.8 | 6.4 | 0.00 | 0.00 | 0.00 | 25 | 1014.5 |
| 20260830155946 | 36 | 155 | 3.2 | 6.4 | 0.00 | 0.00 | 0.00 | 25 | 1014.6 |
| 20260830155443 | 36 | 71 | 0.0 | 4.8 | 0.00 | 0.00 | 0.00 | 24 | 1014.7 |
| 20260830154937 | 36 | 141 | 0.0 | 3.2 | 0.00 | 0.00 | 0.00 | 25 | 1014.7 |
| 20260830154433 | 36 | 48 | 0.0 | 4.8 | 0.00 | 0.00 | 0.00 | 25 | 1014.6 |
| 20260830153925 | 36 | 233 | 0.0 | 3.2 | 0.00 | 0.00 | 0.00 | 25 | 1014.3 |
| 20260830153420 | 35 | 199 | 1.6 | 3.2 | 0.00 | 0.00 | 0.00 | 26 | 1014.4 |
| 20260830152919 | 33 | 296 | 0.0 | 3.2 | 0.00 | 0.00 | 0.00 | 27 | 1014.4 |
| 20260830152414 | 34 | 89 | 0.0 | 4.8 | 0.00 | 0.00 | 0.00 | 28 | 1014.4 |
| 20260830151907 | 35 | 213 | 1.6 | 1.6 | 0.00 | 0.00 | 0.00 | 27 | 1014.4 |
| 20260830151402 | 35 | 123 | 1.6 | 3.2 | 0.00 | 0.00 | 0.00 | 27 | 1014.5 |
| 20260830150857 | 35 | 73 | 1.6 | 3.2 | 0.00 | 0.00 | 0.00 | 26 | 1014.6 |
| 20260830150356 | 35 | 352 | 0.0 | 1.6 | 0.00 | 0.00 | 0.00 | 29 | 1014.5 |
| 20260830145851 | 34 | 7 | 0.0 | 3.2 | 0.00 | 0.00 | 0.00 | 28 | 1014.6 |
| 20260830145345 | 33 | 3 | 3.2 | 3.2 | 0.00 | 0.00 | 0.00 | 30 | 1014.5 |
| 20260830144840 | 33 | 325 | 0.0 | 3.2 | 0.00 | 0.00 | 0.00 | 30 | 1014.6 |
| 20260830144337 | 32 | 357 | 0.0 | 3.2 | 0.00 | 0.00 | 0.00 | 31 | 1014.5 |
| 20260830143832 | 32 | 309 | 1.6 | 3.2 | 0.00 | 0.00 | 0.00 | 30 | 1014.5 |
| 20260830143332 | 32 | 75 | 1.6 | 3.2 | 0.00 | 0.00 | 0.00 | 31 | 1014.4 |
| 20260830142826 | 31 | 353 | 1.6 | 4.8 | 0.00 | 0.00 | 0.00 | 33 | 1014.6 |
| 20260830142321 | 30 | 350 | 3.2 | 4.8 | 0.00 | 0.00 | 0.00 | 34 | 1014.6 |
| 20260830141816 | 30 | 318 | 4.8 | 4.8 | 0.00 | 0.00 | 0.00 | 35 | 1014.5 |
| 20260830141311 | 28 | 97 | 1.6 | 3.2 | 0.00 | 0.00 | 0.00 | 36 | 1014.5 |
| 20260830140807 | 28 | 268 | 0.0 | 1.6 | 0.00 | 0.00 | 0.00 | 37 | 1014.3 |
| 20260830140307 | 28 | 14 | 1.6 | 3.2 | 0.00 | 0.00 | 0.00 | 38 | 1014.4 |
| 20260830135801 | 28 | 9 | 1.6 | 3.2 | 0.00 | 0.00 | 0.00 | 37 | 1014.4 |
| 20260830135257 | 28 | 45 | 1.6 | 3.2 | 0.00 | 0.00 | 0.00 | 37 | 1014.3 |
| 20260830134752 | 28 | 71 | 0.0 | 4.8 | 0.00 | 0.00 | 0.00 | 35 | 1014.3 |
| 20260830134247 | 28 | 229 | 1.6 | 3.2 | 0.00 | 0.00 | 0.00 | 35 | 1014.1 |
| 20260830133743 | 28 | 226 | 0.0 | 3.2 | 0.00 | 0.00 | 0.00 | 35 | 1014.1 |
| 20260830133239 | 28 | 208 | 0.0 | 3.2 | 0.00 | 0.00 | 0.00 | 36 | 1014.0 |
| 20260830132734 | 27 | 157 | 1.6 | 3.2 | 0.00 | 0.00 | 0.00 | 37 | 1014.0 |
| 20260830132230 | 27 | 76 | 0.0 | 1.6 | 0.00 | 0.00 | 0.00 | 37 | 1013.9 |
| 20260830131728 | 27 | 197 | 1.6 | 4.8 | 0.00 | 0.00 | 0.00 | 37 | 1014.0 |
| 20260830131223 | 27 | 220 | 3.2 | 6.4 | 0.00 | 0.00 | 0.00 | 37 | 1013.9 |
| 20260830130724 | 26 | 238 | 1.6 | 4.8 | 0.00 | 0.00 | 0.00 | 38 | 1013.9 |
| 20260830130223 | 27 | 141 | 0.0 | 3.2 | 0.00 | 0.00 | 0.00 | 36 | 1013.9 |
| 20260830125718 | 27 | 89 | 0.0 | 1.6 | 0.00 | 0.00 | 0.00 | 36 | 1014.0 |
| 20260830125213 | 28 | 260 | 3.2 | 4.8 | 0.00 | 0.00 | 0.00 | 35 | 1013.9 |
| 20260830124711 | 28 | 293 | 1.6 | 1.6 | 0.00 | 0.00 | 0.00 | 35 | 1013.8 |
| 20260830124206 | 28 | 205 | 0.0 | 3.2 | 0.00 | 0.00 | 0.00 | 35 | 1013.8 |
| 20260830123657 | 29 | 113 | 0.0 | 3.2 | 0.00 | 0.00 | 0.00 | 35 | 1013.8 |
| 20260830123153 | 28 | 86 | 3.2 | 6.4 | 0.00 | 0.00 | 0.00 | 34 | 1013.8 |
| 20260830122650 | 28 | 258 | 3.2 | 3.2 | 0.00 | 0.00 | 0.00 | 34 | 1013.9 |
| 20260830122145 | 28 | 258 | 1.6 | 4.8 | 0.00 | 0.00 | 0.00 | 34 | 1014.0 |
| 20260830121641 | 30 | 278 | 0.0 | 3.2 | 0.00 | 0.00 | 0.00 | 34 | 1013.8 |
| 20260830121140 | 29 | 175 | 0.0 | 4.8 | 0.00 | 0.00 | 0.00 | 34 | 1014.0 |
| 20260830120635 | 29 | 251 | 4.8 | 4.8 | 0.00 | 0.00 | 0.00 | 34 | 1013.8 |
| 20260830120132 | 28 | 220 | 8.0 | 8.0 | 0.00 | 0.00 | 0.00 | 34 | 1013.9 |
| 20260830115628 | 28 | 245 | 4.8 | 6.4 | 0.00 | 0.00 | 0.00 | 34 | 1014.0 |
| 20260830115123 | 29 | 233 | 3.2 | 3.2 | 0.00 | 0.00 | 0.00 | 34 | 1013.8 |
| 20260830114620 | 29 | 154 | 3.2 | 4.8 | 0.00 | 0.00 | 0.00 | 34 | 1013.8 |
| 20260830114119 | 28 | 234 | 1.6 | 3.2 | 0.00 | 0.00 | 0.00 | 34 | 1013.9 |
| 20260830113615 | 28 | 166 | 0.0 | 3.2 | 0.00 | 0.00 | 0.00 | 35 | 1013.7 |
| 20260830113109 | 29 | 281 | 0.0 | 3.2 | 0.00 | 0.00 | 0.00 | 34 | 1013.8 |
| 20260830112606 | 29 | 65 | 0.0 | 3.2 | 0.00 | 0.00 | 0.00 | 34 | 1013.5 |
| 20260830112102 | 29 | 315 | 0.0 | 3.2 | 0.00 | 0.00 | 0.00 | 34 | 1013.5 |
| 20260830111557 | 29 | 258 | 0.0 | 1.6 | 0.00 | 0.00 | 0.00 | 34 | 1013.6 |
| 20260830111052 | 30 | 255 | 4.8 | 4.8 | 0.00 | 0.00 | 0.00 | 33 | 1013.5 |
| 20260830110547 | 30 | 240 | 4.8 | 6.4 | 0.00 | 0.00 | 0.00 | 33 | 1013.5 |
| 20260830110043 | 30 | 189 | 0.0 | 3.2 | 0.00 | 0.00 | 0.00 | 34 | 1013.4 |
| 20260830105537 | 30 | 129 | 1.6 | 4.8 | 0.00 | 0.00 | 0.00 | 33 | 1013.6 |
| 20260830105033 | 30 | 259 | 0.0 | 3.2 | 0.00 | 0.00 | 0.00 | 33 | 1013.3 |
| 20260830104530 | 31 | 150 | 3.2 | 3.2 | 0.00 | 0.00 | 0.00 | 32 | 1013.3 |
| 20260830104026 | 30 | 254 | 1.6 | 3.2 | 0.00 | 0.00 | 0.00 | 33 | 1013.4 |
| 20260830103521 | 30 | 306 | 3.2 | 4.8 | 0.00 | 0.00 | 0.00 | 33 | 1013.3 |
| 20260830103020 | 31 | 89 | 0.0 | 3.2 | 0.00 | 0.00 | 0.00 | 32 | 1013.1 |
| 20260830102519 | 31 | 288 | 0.0 | 3.2 | 0.00 | 0.00 | 0.00 | 32 | 1013.3 |
| 20260830102015 | 30 | 109 | 3.2 | 3.2 | 0.00 | 0.00 | 0.00 | 32 | 1013.1 |
| 20260830101510 | 30 | 236 | 0.0 | 3.2 | 0.00 | 0.00 | 0.00 | 32 | 1013.1 |